EDT,Max TemperatureF,Mean TemperatureF,Min TemperatureF,Max Dew PointF,MeanDew PointF,Min DewpointF,Max Humidity, Mean Humidity, Min Humidity, Max Sea Level PressureIn, Mean Sea Level PressureIn, Min Sea Level PressureIn, Max VisibilityMiles, Mean VisibilityMiles, Min VisibilityMiles, Max Wind SpeedMPH, Mean Wind SpeedMPH, Max Gust SpeedMPH,PrecipitationIn, CloudCover, Events, WindDirDegrees
2012-10-1,61,58,55,60,55,48,100,89,70,29.83,29.68,29.58,10,7,2,14,8,21,0.66,8,Rain,48
2012-10-2,64,61,57,62,58,55,99,91,78,29.92,29.76,29.59,10,7,1,10,6,,0.00,8,,194
2012-10-3,74,62,51,56,52,50,97,76,43,30.14,30.04,29.92,10,10,7,13,7,17,0.00,3,,193
2012-10-4,78,64,52,59,55,50,96,78,47,30.24,30.19,30.15,10,10,10,12,4,,0.00,0,,200
2012-10-5,77,62,46,63,57,44,95,81,52,30.16,30.07,29.96,10,10,10,17,5,23,0.01,3,Rain,235
2012-10-6,58,48,39,42,37,30,95,71,37,30.20,30.14,30.05,10,10,10,10,7,21,0.11,5,Rain,311
2012-10-7,55,48,41,39,37,33,83,68,45,30.20,30.17,30.12,10,10,10,9,6,,0.00,5,,313
2012-10-8,57,48,39,39,36,32,91,70,40,30.25,30.19,30.14,10,10,6,6,2,,0.00,4,,65
2012-10-9,63,49,35,44,40,35,97,73,42,30.18,30.10,30.00,10,9,5,12,3,,0.00,0,,170
2012-10-10,58,48,36,46,39,32,87,70,40,30.27,30.12,29.98,10,10,10,16,7,23,0.00,2,,266
2012-10-11,64,46,30,39,34,30,96,66,34,30.32,30.25,30.20,10,9,3,12,2,,0.00,0,,218
2012-10-12,66,54,43,48,45,39,94,74,45,30.33,30.28,30.21,10,10,7,8,2,,0.06,4,Rain,38
2012-10-13,74,59,45,64,54,43,92,79,71,30.30,30.18,30.04,10,10,10,16,8,,0.00,3,,152
2012-10-14,75,68,61,63,59,55,93,75,57,30.02,29.87,29.77,10,10,10,28,15,40,0.12,6,Rain,197
2012-10-15,64,54,43,54,44,40,95,72,43,29.99,29.94,29.87,10,10,7,15,9,26,0.00,1,,278
2012-10-16,70,54,38,48,43,38,99,69,40,30.01,29.93,29.81,10,10,10,12,3,,0.00,1,,156
2012-10-17,76,62,51,52,49,44,91,62,40,29.81,29.72,29.51,10,10,10,24,10,37,0.00,4,,173
2012-10-18,65,58,46,55,45,32,100,67,31,29.71,29.64,29.51,10,9,1,25,15,37,0.63,5,Rain-Thunderstorm,210
2012-10-19,56,51,46,45,40,35,87,68,50,29.78,29.67,29.61,10,10,10,16,9,21,0.02,7,Rain,217
2012-10-20,55,50,44,46,43,41,90,79,65,30.00,29.90,29.78,10,10,10,12,6,,0.00,6,,236
2012-10-21,73,56,41,49,45,40,97,71,42,30.11,30.06,30.00,10,10,6,13,3,,0.00,0,,128
2012-10-22,80,69,58,55,52,48,74,59,41,30.14,30.08,30.05,10,10,10,14,7,18,0.00,5,,167
2012-10-23,80,67,55,53,50,48,79,58,37,30.11,30.06,30.01,10,10,10,15,7,20,0.00,2,,195
2012-10-24,79,66,55,58,52,49,78,60,44,30.13,30.07,30.02,10,10,10,12,6,,0.00,1,,181
2012-10-25,79,66,52,58,52,47,88,66,41,30.05,30.00,29.94,10,10,10,17,4,25,0.00,1,,178
2012-10-26,63,53,43,55,46,42,100,88,73,30.16,30.11,29.97,10,8,2,14,9,21,0.57,7,Rain,338
2012-10-27,53,47,41,43,40,36,100,80,61,30.14,30.10,30.06,10,9,2,14,10,22,0.00,7,,349
2012-10-28,51,44,39,35,32,28,77,61,47,30.09,30.07,30.05,10,10,10,16,10,25,0.00,6,,342
2012-10-29,54,44,34,30,26,16,79,52,23,30.10,30.02,29.87,10,10,10,26,11,34,0.00,1,,325
2012-10-30,44,42,40,35,31,30,81,66,56,29.85,29.74,29.68,10,9,7,18,15,30,0.00,7,Rain,288
2012-10-31,52,42,34,32,29,26,72,59,46,29.91,29.83,29.77,10,10,10,17,9,24,0.00,3,,265